Tracking 35237 objects as of 5-Sep-2026
HD Live streaming from Space Station
objects crossing your sky now

QIANFAN-91

Track QIANFAN-91 now!
10-day predictions
QIANFAN-91 is classified as:


NORAD ID: 66033
Int'l Code: 2025-233A
Launch date: October 17, 2025
Source: People's Republic of China (PRC)
Launch site: Taiyaun Space Center, China (TSC)
Your satellite tracking list
Your tracking list is empty




NASA's NSSDC Master Catalog

Two Line Element Set (TLE):
1 66033U 25233A   26248.63899374  .00000064  00000-0  80005-4 0  9991
2 66033  89.0028  35.0499 0002006  90.0118 270.1263 13.51027762 44041
Source of the keplerian elements: AFSPC